GW3299 Weather Reports


time (UTC)temp
F
wind
direction
speed
knots
gust
knots
rain 1hr
in
rain 24hr
in
rain mn
in
humidity
%
barometer
mb
20260505162345 58 254 0.0 0.0 0.07 1.35 1.35 97 1024.8
20260505161843 58 180 0.0 0.0 0.07 1.35 1.35 97 1025.0
20260505161339 58 306 0.0 0.0 0.00 1.34 1.34 97 1024.9
20260505160836 58 353 0.0 0.0 0.12 1.34 1.34 97 1024.7
20260505160329 57 285 0.0 0.0 0.17 1.34 1.34 97 1024.6
20260505153302 57 186 0.0 0.0 0.00 1.30 1.30 97 1024.6
20260505152759 58 255 0.0 0.0 0.00 1.30 1.30 97 1024.2
20260505152255 57 208 0.0 0.0 0.00 1.30 1.30 97 1024.3
20260505151750 57 69 0.9 0.9 0.00 1.30 1.30 97 1024.3
20260505151248 57 156 0.9 0.9 0.00 1.30 1.30 97 1024.5
20260505150744 57 244 0.0 0.9 0.00 1.30 1.30 97 1024.6
20260505150241 57 39 0.0 0.9 0.00 1.30 1.30 97 1024.8
20260505140206 57 340 1.7 3.5 0.00 1.25 1.25 96 1026.2
20260505130130 57 348 3.5 8.7 0.24 1.07 1.07 96 1027.2
20260505124619 58 25 6.1 7.0 0.31 1.02 1.02 96 1026.7
20260505124116 58 224 2.6 2.6 0.31 1.00 1.00 96 1026.2
20260505123612 58 50 2.6 3.5 1.06 0.97 0.97 95 1026.0
20260505123109 58 144 5.2 7.0 1.72 0.95 0.95 95 1025.5
20260505122605 59 210 3.5 5.2 1.51 0.79 0.79 94 1026.0
20260505122102 62 101 5.2 8.7 0.54 0.63 0.63 90 1026.0
20260505121559 64 14 7.8 9.6 0.47 0.54 0.54 88 1024.6
20260505121056 64 152 2.6 3.5 0.47 0.54 0.54 87 1024.1
20260505120552 66 325 5.2 6.1 0.05 0.47 0.47 82 1024.8
20260505120048 66 329 2.6 3.5 0.00 0.46 0.46 82 1024.6
20260505115542 66 13 3.5 3.5 0.00 0.46 0.46 80 1024.7
20260505115040 67 44 4.3 6.1 0.00 0.46 0.46 78 1024.9
20260505114537 67 9 4.3 6.1 0.00 0.46 0.46 77 1025.3
20260505114033 68 94 6.1 7.8 0.00 0.46 0.46 74 1025.2
20260505113530 69 23 6.1 7.0 0.00 0.46 0.46 72 1025.3
20260505113026 69 31 5.2 7.0 0.00 0.46 0.46 70 1024.9
20260505112522 70 24 6.1 7.8 0.00 0.46 0.46 68 1024.8
20260505112020 70 330 5.2 7.0 0.00 0.46 0.46 68 1024.7
20260505111514 70 344 5.2 7.0 0.00 0.46 0.46 68 1024.8
20260505111011 70 13 2.6 3.5 0.00 0.46 0.46 68 1025.0
20260505110508 70 36 4.3 5.2 0.00 0.46 0.46 68 1025.4
20260505101939 69 2 6.1 7.0 0.00 0.46 0.46 68 1026.7
20260505101432 69 350 6.1 8.7 0.00 0.46 0.46 68 1027.2
20260505100928 69 38 6.1 8.7 0.00 0.46 0.46 69 1027.1
20260505100426 70 20 11.3 14.8 0.00 0.46 0.46 68 1027.2
20260505095921 70 355 6.1 7.8 0.00 0.46 0.46 68 1027.4
20260505095419 70 9 7.8 7.8 0.00 0.46 0.46 68 1027.2
20260505094914 69 28 7.0 9.6 0.00 0.46 0.46 68 1027.2
20260505094412 69 14 7.8 8.7 0.00 0.46 0.46 69 1027.7
20260505093908 70 9 7.0 7.8 0.00 0.46 0.46 69 1027.8
20260505093405 70 17 8.7 12.2 0.00 0.46 0.46 67 1027.7
20260505092902 70 347 8.7 11.3 0.00 0.46 0.46 67 1027.8
20260505092400 70 46 7.8 8.7 0.00 0.46 0.46 68 1027.9
20260505091857 70 21 10.4 12.2 0.00 0.46 0.46 67 1027.9
20260505091355 70 19 8.7 9.6 0.00 0.46 0.46 67 1028.2
20260505090853 70 38 7.0 12.2 0.00 0.46 0.46 69 1027.9
20260505090351 69 0 7.0 7.8 0.00 0.46 0.46 69 1028.1
20260505085848 69 1 8.7 12.2 0.00 0.46 0.46 70 1028.4
20260505085345 70 21 5.2 7.8 0.00 0.46 0.46 70 1028.3
20260505084843 69 346 5.2 7.8 0.00 0.46 0.46 71 1028.5
20260505084341 68 331 4.3 6.1 0.00 0.46 0.46 72 1028.6
20260505083838 68 137 2.6 3.5 0.00 0.46 0.46 73 1028.6
20260505083336 69 63 1.7 2.6 0.00 0.46 0.46 73 1028.6
20260505082832 67 40 2.6 3.5 0.00 0.46 0.46 75 1028.9
20260505082328 66 26 6.1 8.7 0.00 0.46 0.46 76 1028.9
20260505081825 66 8 2.6 2.6 0.00 0.46 0.46 77 1028.9
20260505081322 65 15 5.2 6.1 0.00 0.46 0.46 80 1029.0
20260505080819 64 136 4.3 7.0 0.00 0.46 0.46 83 1029.0
20260505080314 63 77 1.7 2.6 0.00 0.46 0.46 86 1029.0
20260505075810 62 32 1.7 2.6 0.07 0.46 0.46 88 1029.3
20260505075307 62 0 4.3 7.0 0.07 0.46 0.46 86 1029.1
20260505074805 64 24 7.0 8.7 0.00 0.45 0.45 81 1029.3
20260505074302 65 30 5.2 6.1 0.00 0.45 0.45 77 1029.4
20260505073759 65 85 2.6 3.5 0.00 0.45 0.45 77 1029.4
20260505073257 65 9 2.6 5.2 0.00 0.45 0.45 78 1029.9
20260505072754 64 31 1.7 2.6 0.00 0.45 0.45 80 1030.0
20260505072250 64 332 4.3 6.1 0.00 0.45 0.45 79 1029.8
20260505071745 63 359 4.3 6.1 0.00 0.45 0.45 81 1030.0
20260505071242 62 49 1.7 2.6 0.00 0.45 0.45 84 1029.9
20260505070740 64 132 0.9 0.9 0.00 0.45 0.45 83 1029.9
20260505070236 62 17 1.7 1.7 0.00 0.45 0.45 83 1029.8
20260505065732 62 40 4.3 6.1 0.00 0.45 0.45 83 1029.9
20260505065229 61 359 3.5 5.2 0.00 0.45 0.45 86 1030.1
20260505064726 61 19 4.3 5.2 0.00 0.45 0.45 88 1030.0
20260505064224 61 355 1.7 1.7 0.00 0.45 0.45 91 1030.3
20260505063721 60 26 1.7 1.7 0.00 0.45 0.45 92 1030.3
20260505063217 60 22 2.6 2.6 0.00 0.45 0.45 93 1030.1
20260505062713 60 27 0.9 1.7 0.00 0.45 0.45 93 1029.9
20260505062211 59 29 0.9 1.7 0.00 0.45 0.45 94 1030.1
20260505061708 59 330 1.7 2.6 0.00 0.45 0.45 96 1030.0
20260505061206 59 47 0.0 0.0 0.00 0.45 0.45 96 1030.0
20260505060703 59 308 0.9 0.9 0.00 0.45 0.45 96 1029.9
20260505060200 60 213 0.0 0.0 0.00 0.45 0.45 97 1029.9
20260505055655 59 186 0.0 0.0 0.00 0.45 0.45 96 1029.9
20260505055152 58 150 0.0 0.0 0.00 0.45 0.45 96 1029.8
20260505054649 58 190 0.0 0.0 0.00 0.45 0.45 97 1029.8
20260505054147 58 187 0.0 0.0 0.00 0.45 0.45 97 1029.8
20260505053645 57 190 0.0 0.0 0.00 0.45 0.45 97 1029.7
20260505053141 57 211 0.0 0.0 0.00 0.45 0.45 97 1029.9
20260505052638 57 208 0.0 0.0 0.00 0.45 0.45 97 1029.8
20260505052135 57 225 0.0 0.0 0.00 0.45 0.45 97 1029.9
20260505051632 58 191 0.0 0.0 0.00 0.45 0.45 97 1029.9
20260505051130 57 190 0.0 0.0 0.00 0.45 0.45 97 1029.7
20260505050628 56 203 0.0 0.0 0.00 0.45 0.45 97 1029.8
20260505050126 56 193 0.0 0.0 0.00 0.45 0.45 97 1029.6
20260505041556 57 216 0.0 0.0 0.00 0.44 0.44 97 1030.0
20260505041053 57 257 0.0 0.0 0.00 0.44 0.44 97 1030.1
20260505040550 57 274 0.0 0.0 0.00 0.44 0.44 97 1030.5
20260505040047 57 301 0.0 0.9 0.00 0.44 0.44 97 1030.1
20260505035543 56 350 1.7 2.6 0.00 0.44 0.44 97 1030.3
20260505035040 56 36 0.9 1.7 0.07 0.44 0.44 97 1030.3
20260505034536 56 320 0.9 1.7 0.07 0.44 0.44 97 1029.9
20260505034033 57 234 0.0 0.0 0.00 0.43 0.43 97 1029.8
20260505033530 57 108 0.0 0.0 0.00 0.43 0.43 96 1029.7
20260505033029 57 32 0.9 2.6 0.00 0.43 0.43 97 1029.9
20260505032526 56 45 1.7 2.6 0.00 0.43 0.43 96 1029.9
20260505032022 56 123 0.0 0.0 0.00 0.43 0.43 96 1029.9
20260505031520 57 356 2.6 2.6 0.00 0.43 0.43 96 1029.8
20260505031016 57 12 0.0 0.9 0.05 0.43 0.43 96 1029.9
20260505030513 57 12 0.0 0.0 0.12 0.43 0.43 96 1029.8
20260505030009 57 254 0.0 0.0 0.00 0.41 0.41 96 1029.8
20260505025505 57 316 0.0 0.0 0.12 0.41 0.41 96 1029.9
20260505025004 57 256 0.0 0.0 0.12 0.41 0.41 96 1030.1
20260505024500 57 262 0.0 0.0 0.00 0.39 0.39 96 1029.9
20260505023958 57 241 0.0 0.0 0.00 0.39 0.39 96 1029.8
20260505023454 57 222 0.0 0.0 0.07 0.39 0.39 96 1029.7
20260505022952 57 211 0.0 0.0 0.07 0.39 0.39 96 1029.4
20260505022449 57 222 0.0 0.0 0.05 0.38 0.38 96 1029.6
20260505021947 57 80 0.0 0.9 0.17 0.38 0.38 96 1029.9
20260505021443 57 342 3.5 3.5 0.19 0.37 0.37 96 1030.4
20260505020939 57 336 3.5 3.5 0.12 0.35 0.35 96 1030.5
20260505020434 57 332 3.5 5.2 0.17 0.34 0.34 96 1031.1
20260505015931 57 337 7.0 7.8 0.19 0.33 0.33 96 1030.9
20260505015428 57 226 0.0 0.9 0.19 0.31 0.31 96 1031.2
20260505014926 57 0 3.5 3.5 0.17 0.30 0.30 96 1031.8
20260505014422 57 324 4.3 6.1 0.05 0.28 0.28 96 1031.5
20260505013919 57 314 0.9 2.6 0.07 0.27 0.27 95 1031.4
20260505013416 57 182 2.6 3.5 0.07 0.27 0.27 95 1031.5
20260505012914 57 307 0.9 1.7 0.07 0.26 0.26 95 1031.2
20260505012412 57 332 3.5 7.8 0.12 0.26 0.26 95 1031.5
20260505011908 57 342 3.5 5.2 0.54 0.26 0.26 95 1031.6
20260505011405 57 290 2.6 6.1 1.44 0.24 0.24 94 1031.5
20260505010901 57 9 2.6 2.6 0.78 0.13 0.13 93 1031.6
20260505010357 61 40 6.1 11.3 0.00 0.00 0.00 85 1031.3
20260505005853 61 317 1.7 1.7 0.00 0.00 0.00 80 1030.3
20260505005350 59 290 0.0 0.0 0.00 0.00 0.00 84 1029.9
20260505004848 58 223 0.0 0.0 0.00 0.00 0.00 88 1029.9
20260505004344 58 223 0.0 0.0 0.00 0.00 0.00 88 1029.7
20260505003841 58 223 0.0 0.0 0.00 0.00 0.00 88 1030.0
20260505003339 58 223 0.0 0.0 0.00 0.00 0.00 88 1029.9
20260505002834 58 223 0.0 0.0 0.00 0.00 0.00 87 1030.1
20260505002331 59 221 0.0 0.9 0.00 0.00 0.00 87 1030.0
20260505001830 59 233 0.0 0.0 0.00 0.00 0.00 87 1030.0
20260505001326 58 233 0.0 0.0 0.00 0.00 0.00 87 1030.0
20260505000824 59 233 0.0 0.0 0.00 0.00 0.00 87 1030.3
20260505000321 59 233 0.0 0.0 0.00 0.00 0.00 86 1030.0
20260504235818 60 235 0.0 0.0 0.00 0.00 0.00 85 1030.0
20260504235315 60 22 0.0 0.0 0.00 0.00 0.00 83 1030.1
20260504234811 61 23 0.0 0.0 0.00 0.00 0.00 82 1030.3
20260504234309 61 23 0.0 0.0 0.00 0.00 0.00 82 1030.3
20260504233805 62 23 0.0 0.0 0.00 0.00 0.00 81 1030.5
20260504233301 62 23 0.0 0.0 0.00 0.00 0.00 81 1030.5
20260504232758 62 23 0.0 0.0 0.00 0.00 0.00 81 1030.5
20260504232255 62 23 0.0 0.0 0.00 0.00 0.00 80 1030.4
20260504231752 62 23 0.0 0.0 0.00 0.00 0.00 80 1030.4
20260504231248 62 23 0.0 0.0 0.00 0.00 0.00 79 1030.3
20260504230744 62 23 0.0 0.0 0.00 0.00 0.00 79 1030.6
20260504230243 62 20 0.0 0.9 0.00 0.00 0.00 79 1030.5
20260504225741 62 352 0.0 0.9 0.00 0.00 0.00 79 1030.7
20260504225237 62 24 0.9 0.9 0.00 0.00 0.00 79 1030.6
20260504224735 63 17 0.0 0.9 0.00 0.00 0.00 79 1030.7
20260504224232 63 13 0.9 1.7 0.00 0.00 0.00 78 1030.7
20260504223728 63 22 0.0 0.9 0.00 0.00 0.00 78 1030.6
20260504223223 63 19 1.7 1.7 0.00 0.00 0.00 78 1030.9
20260504222721 64 80 0.9 1.7 0.00 0.00 0.00 77 1030.9
20260504222218 64 36 1.7 2.6 0.00 0.00 0.00 77 1031.1
20260504221715 64 21 2.6 2.6 0.00 0.00 0.00 77 1031.2
20260504221212 64 33 0.9 1.7 0.00 0.00 0.00 77 1031.2
20260504220708 64 28 1.7 2.6 0.00 0.00 0.00 77 1031.1
20260504220206 63 46 2.6 2.6 0.00 0.00 0.00 78 1031.3
20260504215701 63 22 1.7 1.7 0.00 0.00 0.00 78 1031.2
20260504214250 64 13 1.7 1.7 0.00 0.00 0.00 75 1031.4
20260504213747 64 13 1.7 1.7 0.00 0.00 0.00 75 1031.4
20260504213243 64 6 1.7 2.6 0.00 0.00 0.00 75 1031.6
20260504212741 64 273 0.0 0.0 0.00 0.00 0.00 75 1031.6
20260504212237 64 315 0.9 0.9 0.00 0.00 0.00 76 1031.9
20260504211734 64 303 0.9 0.9 0.00 0.00 0.00 76 1031.8
20260504211225 63 5 0.9 1.7 0.00 0.00 0.00 77 1031.9
20260504210723 63 282 0.0 0.9 0.00 0.00 0.00 77 1032.0
20260504210220 63 309 0.9 1.7 0.00 0.00 0.00 77 1031.9
20260504205717 63 334 1.7 1.7 0.00 0.00 0.00 77 1031.9
20260504205214 63 353 1.7 2.6 0.00 0.00 0.00 78 1031.8
20260504204712 63 353 1.7 2.6 0.00 0.00 0.00 78 1031.9
20260504204211 63 308 1.7 1.7 0.00 0.00 0.00 78 1032.1
20260504203709 63 289 1.7 1.7 0.00 0.00 0.00 78 1032.2
20260504203207 64 331 2.6 2.6 0.00 0.00 0.00 77 1032.3
20260504202706 64 324 1.7 2.6 0.00 0.00 0.00 77 1032.3
20260504202204 64 2 1.7 1.7 0.00 0.00 0.00 77 1032.6
20260504201701 65 312 1.7 1.7 0.00 0.00 0.00 76 1032.3
20260504201158 65 356 1.7 2.6 0.00 0.00 0.00 75 1032.5
20260504200655 64 341 2.6 2.6 0.00 0.00 0.00 75 1032.3
20260504200152 64 28 1.7 2.6 0.00 0.00 0.00 76 1032.3
20260504195648 63 9 1.7 1.7 0.00 0.00 0.00 78 1032.6
20260504195144 63 359 1.7 2.6 0.00 0.00 0.00 78 1032.7
20260504194641 63 322 1.7 2.6 0.00 0.00 0.00 78 1032.8
20260504194137 63 330 1.7 1.7 0.00 0.00 0.00 78 1032.6
20260504193633 63 337 1.7 1.7 0.00 0.00 0.00 77 1032.5
20260504193132 64 255 0.9 0.9 0.00 0.00 0.00 77 1032.5
20260504192629 64 332 1.7 1.7 0.00 0.00 0.00 77 1032.6
20260504192127 63 241 0.0 0.0 0.00 0.00 0.00 77 1032.5
20260504191625 63 306 0.9 0.9 0.00 0.00 0.00 78 1032.6
20260504191121 63 340 0.9 0.9 0.00 0.00 0.00 77 1032.5
20260504190617 63 18 1.7 2.6 0.00 0.00 0.00 77 1032.2
20260504190114 63 42 1.7 1.7 0.00 0.00 0.00 78 1032.5
20260504185611 62 44 0.9 0.9 0.00 0.00 0.00 79 1032.3
20260504185107 62 355 0.9 0.9 0.00 0.00 0.00 80 1032.3
20260504184603 63 36 1.7 3.5 0.00 0.00 0.00 78 1032.5
20260504184058 63 79 0.9 0.9 0.00 0.00 0.00 78 1032.5
20260504183556 63 260 0.0 0.0 0.00 0.00 0.00 79 1032.3
20260504183054 63 249 0.0 0.0 0.00 0.00 0.00 79 1032.6
20260504182550 63 284 0.0 0.0 0.00 0.00 0.00 79 1032.6
20260504182048 63 157 0.0 0.0 0.00 0.00 0.00 79 1032.5
20260504181545 63 253 0.0 0.0 0.00 0.00 0.00 80 1032.5
20260504181043 63 254 0.0 0.0 0.00 0.00 0.00 80 1032.6
20260504180541 64 253 0.0 0.0 0.00 0.00 0.00 78 1032.6
20260504180040 64 254 0.0 0.0 0.00 0.00 0.00 76 1032.6
20260504175537 64 254 0.0 0.0 0.00 0.00 0.00 76 1032.6
20260504175034 64 254 0.0 0.0 0.00 0.00 0.00 76 1032.3
20260504174532 65 254 0.0 0.0 0.00 0.00 0.00 75 1032.3
20260504174028 65 254 0.0 0.0 0.00 0.00 0.00 73 1032.2
20260504173525 65 254 0.0 0.0 0.00 0.00 0.00 73 1032.3
20260504173022 65 254 0.0 0.0 0.00 0.00 0.00 74 1032.2
20260504172519 66 254 0.0 0.0 0.00 0.00 0.00 73 1032.5
20260504172015 66 255 0.0 0.0 0.00 0.00 0.00 73 1032.5
20260504171512 66 255 0.0 0.0 0.00 0.00 0.00 73 1032.2
20260504171009 66 254 0.0 0.0 0.00 0.00 0.00 74 1032.3
20260504170505 66 254 0.0 0.0 0.00 0.00 0.00 72 1032.3